N25HG KBHM-KBHM

Flight info

Callsign N25HG
Flight time 0h 4m
Altitude VFR
Route PATTERN
Aircraft EVOP/L-DOV/C

Departure

Time 2026-04-20 00:47
Airport Birmingham-Shuttlesworth International Airport (KBHM)

Arrival

Time 2026-04-20 00:51
Airport Birmingham-Shuttlesworth International Airport (KBHM)
Time Latitude Longitude Altitude Speed Heading
2026-04-20 00:40 33.56587 -86.74236 633 ft 0 kts 166°
2026-04-20 00:42 33.56589 -86.74303 631 ft 15 kts 287°
2026-04-20 00:42 33.56627 -86.74452 628 ft 16 kts 311°
2026-04-20 00:43 33.56641 -86.74552 627 ft 19 kts 258°
2026-04-20 00:44 33.56595 -86.74584 626 ft 17 kts 175°
2026-04-20 00:44 33.56461 -86.74591 624 ft 18 kts 176°
2026-04-20 00:44 33.56306 -86.74590 623 ft 25 kts 177°
2026-04-20 00:44 33.56114 -86.74590 623 ft 29 kts 182°
2026-04-20 00:45 33.55902 -86.74593 627 ft 29 kts 175°
2026-04-20 00:45 33.55716 -86.74590 632 ft 26 kts 174°
2026-04-20 00:45 33.55522 -86.74588 637 ft 28 kts 182°
2026-04-20 00:45 33.55377 -86.74633 641 ft 18 kts 266°
2026-04-20 00:46 33.55432 -86.74721 638 ft 9 kts
2026-04-20 00:46 33.55561 -86.74725 634 ft 44 kts
2026-04-20 00:46 33.56082 -86.74722 654 ft 102 kts 353°
2026-04-20 00:46 33.56989 -86.74791 1226 ft 166 kts 350°
2026-04-20 00:47 33.57915 -86.75280 2324 ft 129 kts 304°
2026-04-20 00:47 33.57684 -86.76317 2119 ft 149 kts 243°
2026-04-20 00:47 33.57082 -86.77316 1993 ft 140 kts 245°
2026-04-20 00:47 33.56556 -86.78294 1824 ft 131 kts 248°
2026-04-20 00:48 33.55851 -86.78816 1607 ft 135 kts 186°
2026-04-20 00:48 33.55037 -86.78598 1352 ft 105 kts 129°
2026-04-20 00:48 33.55020 -86.77885 904 ft 90 kts 45°
2026-04-20 00:48 33.55603 -86.76950 658 ft 181 kts 50°
2026-04-20 00:49 33.56405 -86.75555 644 ft 240 kts 51°
2026-04-20 00:49 33.57444 -86.74492 2782 ft 197 kts 360°
2026-04-20 00:49 33.58356 -86.75273 2653 ft 187 kts 282°
2026-04-20 00:49 33.57672 -86.76692 2006 ft 206 kts 237°
2026-04-20 00:50 33.56810 -86.77985 1782 ft 175 kts 239°
2026-04-20 00:50 33.56132 -86.78883 1600 ft 130 kts 208°
2026-04-20 00:50 33.55463 -86.78590 1354 ft 95 kts 97°
2026-04-20 00:50 33.55408 -86.77812 895 ft 94 kts 84°
2026-04-20 00:51 33.55490 -86.77129 610 ft 70 kts 54°
2026-04-20 00:51 33.55669 -86.76829 609 ft 47 kts 41°
2026-04-20 00:51 33.55990 -86.76372 640 ft 98 kts 34°
2026-04-20 00:51 33.56519 -86.75490 845 ft 161 kts 60°
2026-04-20 00:52 33.57160 -86.74360 1272 ft 161 kts 24°
2026-04-20 00:52 33.57847 -86.74929 1622 ft 150 kts 276°
2026-04-20 00:52 33.57369 -86.76173 1713 ft 176 kts 247°
2026-04-20 00:52 33.56846 -86.77521 1272 ft 182 kts 257°
2026-04-20 00:53 33.56379 -86.78814 1304 ft 156 kts 246°
2026-04-20 00:53 33.55529 -86.79280 1277 ft 143 kts 153°
2026-04-20 00:53 33.54751 -86.78607 1172 ft 125 kts 117°
2026-04-20 00:53 33.55307 -86.77447 701 ft 234 kts 44°
2026-04-20 00:54 33.56273 -86.75706 735 ft 233 kts 54°
2026-04-20 00:54 33.57211 -86.74184 725 ft 253 kts 49°
2026-04-20 00:54 33.57486 -86.72584 2017 ft 238 kts 147°
2026-04-20 00:54 33.56394 -86.73653 1421 ft 212 kts 239°
2026-04-20 00:55 33.55632 -86.75070 1203 ft 188 kts 244°
2026-04-20 00:55 33.54998 -86.76302 1124 ft 166 kts 242°
2026-04-20 00:55 33.54402 -86.77405 1024 ft 148 kts 245°
2026-04-20 00:55 33.54596 -86.78234 820 ft 121 kts 353°
2026-04-20 00:56 33.55403 -86.77361 704 ft 228 kts 57°
2026-04-20 00:56 33.56291 -86.75760 647 ft 254 kts 51°
2026-04-20 00:56 33.57387 -86.73846 724 ft 301 kts 52°
2026-04-20 00:56 33.57230 -86.71909 1922 ft 266 kts 150°
2026-04-20 00:57 33.55864 -86.72509 2154 ft 206 kts 237°
2026-04-20 00:57 33.55124 -86.73921 1732 ft 195 kts 247°
2026-04-20 00:57 33.54494 -86.75289 1511 ft 180 kts 246°
2026-04-20 00:57 33.53918 -86.76489 1528 ft 153 kts 248°
2026-04-20 00:58 33.53360 -86.77535 1396 ft 142 kts 241°
2026-04-20 00:58 33.52664 -86.77718 1366 ft 114 kts 105°
2026-04-20 00:58 33.52949 -86.77099 1150 ft 97 kts 358°
2026-04-20 00:58 33.53247 -86.77766 1332 ft 132 kts 243°
2026-04-20 00:59 33.52425 -86.77795 1580 ft 141 kts 115°
2026-04-20 00:59 33.52712 -86.77147 1723 ft 119 kts 332°
2026-04-20 00:59 33.52642 -86.78206 1725 ft 169 kts 237°
2026-04-20 00:59 33.51907 -86.79400 1610 ft 166 kts 242°
2026-04-20 01:00 33.51290 -86.80428 1708 ft 135 kts 239°
2026-04-20 01:00 33.50510 -86.80328 1702 ft 122 kts 102°
2026-04-20 01:00 33.50869 -86.79967 1787 ft 100 kts 309°
2026-04-20 01:00 33.50500 -86.80846 1655 ft 148 kts 230°
2026-04-20 01:01 33.49872 -86.81773 1789 ft 145 kts 240°
2026-04-20 01:01 33.49757 -86.82809 1956 ft 125 kts 307°
2026-04-20 01:01 33.50545 -86.83463 1952 ft 155 kts 339°
2026-04-20 01:01 33.51671 -86.83569 1908 ft 185 kts 25°
2026-04-20 01:02 33.52451 -86.82224 1720 ft 194 kts 54°
2026-04-20 01:02 33.53188 -86.80982 1466 ft 173 kts 48°
2026-04-20 01:02 33.53889 -86.79881 1203 ft 162 kts 51°
2026-04-20 01:02 33.54621 -86.78688 967 ft 223 kts 47°
2026-04-20 01:03 33.55647 -86.76859 664 ft 296 kts 53°
2026-04-20 01:03 33.56895 -86.74699 659 ft 326 kts 53°
2026-04-20 01:03 33.57809 -86.73158 4253 ft 221 kts 46°
2026-04-20 01:03 33.58328 -86.72379 7107 ft 138 kts 29°
2026-04-20 01:04 33.58934 -86.71884 8468 ft 127 kts
2026-04-20 01:04 33.59728 -86.71410 9594 ft 148 kts 28°
2026-04-20 01:04 33.60596 -86.70561 10094 ft 199 kts 22°
2026-04-20 01:04 33.61939 -86.69507 10158 ft 258 kts 26°
2026-04-20 01:05 33.63533 -86.68251 10636 ft 280 kts 25°
2026-04-20 01:05 33.65319 -86.66959 10216 ft 319 kts 25°
2026-04-20 01:05 33.67045 -86.65697 12115 ft 273 kts 30°
2026-04-20 01:05 33.67615 -86.64901 15904 ft 127 kts 23°
2026-04-20 01:06 33.68251 -86.64276 16297 ft 146 kts